Regional Weather Roundup
Issued by NWS State College, PA

Home | Current Version | Previous Version | Text Only | Print | Product List | Glossary On
Versions: 1 2 3 4 5 6 7 8 9 10 11 12 13 14 15 16 17 18 19 20 21 22 23 24 25 26 27 28 29 30 31 32 33 34 35 36 37 38 39 40 41 42 43 44 45 46 47 48 49 50
000
ASUS41 KCTP 050503
RWRCTP

REGIONAL WEATHER ROUNDUP
NATIONAL WEATHER SERVICE STATE COLLEGE PA
100 AM EDT WED AUG 05 2015

Note: "fair" indicates few or no clouds below 12,000 feet with no
significant weather and/or obstructions to visibility.

* = STATION THAT DOES NOT REPORT PRECIPITATION /E.G. RAIN...SNOW...ETC/
    THUNDER OR FOG.

PAZ002>004-007>009-013>016-020>023-029>032-050600-
WESTERN PENNSYLVANIA

CITY           SKY/WX    TMP DP  RH WIND       PRES   REMARKS
ERIE           PTCLDY    66  59  78 S5        29.97S
MEADVILLE      PTCLDY    63  55  75 CALM      30.01R
FRANKLIN*      PTCLDY    63  52  67 SW3       30.02S
NEW CASTLE     FAIR      60  58  93 CALM      30.01S
BEAVER COUNTY  NOT AVBL
BUTLER*        CLEAR     61  55  82 CALM      30.02S
PITTSBURGH INT PTCLDY    67  57  70 NW3       30.01R
PITTSBURGH     CLEAR     69  52  54 W6        30.00R
INDIANA*       PTCLDY    61  59  94 CALM      30.04R
LATROBE        NOT AVBL
WASHINGTON CO* NOT AVBL
$$

PAZ004>006-010>012-017>019-024>028-033>037-041-042-045-046-049>053-050600-
CENTRAL PENNSYLVANIA

CITY           SKY/WX    TMP DP  RH WIND       PRES   REMARKS
BRADFORD       MOCLDY    56  53  90 CALM      30.01F
DUBOIS         PTCLDY    62  53  72 CALM      30.01S
CLEARFIELD     PTCLDY    58  54  86 CALM      30.01S
JOHNSTOWN      PTCLDY    65  52  62 SW5       30.04S
ALTOONA        CLEAR     60  56  86 CALM      30.01S
STATE COLLEGE  PTCLDY    62  53  74 SW5       29.98F
WILLIAMSPORT   PTCLDY    63  57  81 W3        29.94R
SELINSGROVE    PTCLDY    58  56  93 CALM      29.96R
FT INDIANTOWN  CLEAR     61  56  84 N1        29.94S
CAPITAL CITY   CLEAR     66  57  72 SW6       29.94S
HARRISBURG     PTCLDY    69  60  73 CALM      29.93S
YORK           MOCLDY    67  63  87 CALM      29.95S
$$

PAZ038>040-043-044-047-048-054-055-060>062-067>071-050600-
EASTERN PENNSYLVANIA

CITY           SKY/WX    TMP DP  RH WIND       PRES   REMARKS
SCRANTON       PTCLDY    65  57  75 CALM      29.96R
MOUNT POCONO   PTCLDY    57  55  93 CALM      29.99S
ALLENTOWN      PTCLDY    64  56  75 CALM      29.94R
QUAKERTOWN*    PTCLDY    61  57  88 CALM      29.95S
READING        PTCLDY    67  58  72 NW3       29.93S
LANCASTER      MOCLDY    70  59  68 W3        29.94S
COATESVILLE    PTCLDY    73  54  49 NW7       29.96R
POTTSTOWN      MOCLDY    63  59  87 CALM      29.95R
BLUE BELL      PTCLDY    64  61  88 CALM      29.93S
DOYLESTOWN     PTCLDY    65  55  70 CALM      29.93R
WILLOW GROVE   NOT AVBL
NORTH PHILA    PTCLDY    74  50  42 CALM      29.94R
PHILADELPHIA   MOCLDY    78  53  41 CALM      29.93R
$$



USA.gov is the U.S. government's official web portal to all federal, state and local government web resources and services.